Pikes Peak 2019







Classement Pikes Peak 2019
Classement Pikes Peak 2019

Pikes Peak 2019 : Raphaël Astier brille au volant de sa Porsche

Robin Shute (Wolf TSC-Honda) s’impose sur cette édition 2019 de Pikes Peak. Deuxième et premier de la catégorie Time Attack, Raphaël Astier réalise une superbe montée au volant de la Porsche 911 GT3 Cup Turbo chère à Romain Dumas ainsi qu’à l’équipe Hoonigan qui l’avait truffée de caméras d’action.

Malgré cette victoire et ce nouveau record de la catégorie (9.23.721) on retrouve un Raphaël Astier déçu à l’arrivée, en raison de problèmes moteur. (la caméra embarquée qui suit l’interview n’est pas la bonne) :

vidéo (c) : The Broadmoor Pikes Peak International Hill Climb

Les deux autres pilotes tricolore, Christian Schmitter et William Cavailhes, ont été ralentis par des averses de pluie et de grêles. Ils sont parvenus à rallier l’arrivée en 11.54.075 pour Christian et 12.14.113 pour William.

Drame chez les motards avec le décès de Carlin Dunne.

Vainqueur ici même l’an dernier, Carlin Dunne, pilote américain âgé de 36 ans, s’en est allé sur la course vers les nuages.

Hauteur du meilleur temps des motos lors des qualifications, Carlin s’élançait en dernière position de sa catégorie, juste avant la première auto. Il réalisait les trois meilleurs temps au trois premiers passages intermédiaires au guidon de sa Ducati Streetfighter V4.

Hélas dans la quatrième secteur, le plus rapide et dangereux en raison de ses grandes courbes rapides, Carlin Donne a chuté. La bien triste nouvelle est arrivé par communiqué de presse de l’organisation :

« Le comité d’organisation de la course de côte Internationale de Pikes Peak a la tristesse d’annoncer le décès de Carlin Dunne. Il restera dans le coeur de notre famille des pilotes de la montagne. Nous nous rappellerons de son grand coeur enveloppant son esprit de compétition. Il aura marqué chacune des personnes qu’il aura rencontré. Son sourire contagieux et son amour du sport restera à jamais dans nos mémoires. »

Carlin Dunne
Carlin Dunne lors de sa victoire à Pikes Peak en 2018. Photo (c) FB Carlin Dune

Toute la rédaction de PilotedeCourse présente ses sincères condoléances à la famille, aux amis et aux proches de Carlin Dunne. RIP Carlin, Race In Peace…

Classement Pikes Peak 2019

P#PiloteClasseTempsSection 1Section 2Section 3Section 4Chassis
149Robin ShuteUnlimited9:12.4761:30.2682:08.4602:40.5332:53.2152018 Wolf TSC-Honda
219Raphael AstierTime Attack 19:23.7211:37.5762:16.3372:44.3912:45.4172017 Porsche 911 GT3 Cup Turbo
342Peter CunninghamPikes Peak Open9:24.4331:42.1232:15.1232:44.4112:42.7762019 Acura TLX GT
4911David DonohuePikes Peak Open9:33.4041:41.2102:18.7702:44.1552:49.2692016 Porsche 911
57Layne SchranzPikes Peak Open9:40.6301:42.6322:20.4912:47.2032:50.3042015 Chevrolet SS
698Paul DallenbachOpen Wheel9:44.6301:39.7422:17.0592:47.2993:00.5302006 PVA 003 Dallenbach Special
734mRennie ScaysbrookPikes Peak Heavyweight9:44.9631:45.3192:22.0592:46.6122:50.9732018 Aprilia Tuono V4 1100
845Clint VahsholtzTime Attack 19:48.7161:43.5912:20.8062:51.4342:52.8852014 McLaren 650S
95Greg TracyUnlimited9:55.0111:50.8422:19.9962:48.0932:56.0802019 Palatov D2EV
103mLucy GlocknerExhibition Powersport9:58.8781:55.8752:25.7222:44.9452:52.3362019 BMW S1000R
11326Tim HardyTime Attack 110:02.3841:45.4452:24.7872:55.7472:56.4051987 BMW E30
12285mCodie VahsholtzPikes Peak Heavyweight10:03.9081:48.6942:25.3592:50.9932:58.8622019 Ducati MTS-1260 Pikes Peak
13902James RobinsonTime Attack 110:07.9401:44.1522:25.6782:59.9152:58.1952019 Acura NSX
14100Rhys MillenExhibition10:18.4881:49.7592:29.6253:00.7912:58.3132019 Bentley Continental GT
15139mRobert BarberExhibition Powersport10:19.0401:53.2182:31.4612:52.6903:01.6712019 University of Nottingham UoN-PP
1611mChris FillmorePikes Peak Lightweight10:20.8191:53.4622:27.8242:57.7783:01.7552019 KTM 450 SX-F Factory Edition
17173Nick RobinsonTime Attack 110:25.5561:50.5152:29.8123:01.9343:03.2952017 Acura NSX
1834Tommy Boileau (R)Pikes Peak Open10:34.3911:53.1862:33.1233:04.6333:03.4492014 Chevrolet SS
1954mAkinori InouePikes Peak Heavyweight10:36.8841:54.7532:34.0512:58.0373:10.0432018 Kawasaki Z900RS
20174mKamil Holan (R)Pikes Peak Heavyweight10:38.1091:58.3852:36.2342:59.2533:04.2372015 Ducati Streetfighter
2136James ClayTime Attack 110:39.7861:47.1772:31.8333:10.5423:10.2342018 BMW M4 GT4
22113mRafael PaschoalinPikes Peak Middleweight10:43.8801:55.1512:35.3453:04.3693:09.0152019 Yamaha MT-07
230mCory West (R)Pikes Peak Heavyweight10:46.2331:59.7072:34.2813:02.7153:09.5302020 Zero SR-F
24113William Au-Yeung (R)Unlimited11:03.9881:46.0242:24.5692:59.0553:54.3402012 Honda Civic
25119mStefan DolipskiPikes Peak Heavyweight11:11.9152:02.9492:39.4323:06.9413:22.5932019 BMW S1000R
2669mDarryl LujanPikes Peak Lightweight11:15.6662:01.5582:43.2843:13.4043:17.4202013 Honda CRF450R
27183mYasuo AraiExhibition Powersport11:18.2202:07.2342:45.1423:09.0383:16.8061979 Kawasaki Z1000
28211mMichael WoolawayExhibition Powersport11:18.6712:03.7372:43.6033:09.9813:21.3502019 Ducati Custom
2955mEric Wilson (R)Pikes Peak Heavyweight11:19.1332:06.8822:45.8933:10.0513:16.3072017 BMW S1000R
30100mGreg ChicoinePikes Peak Lightweight11:20.6652:03.3592:43.1333:15.7093:18.4642018 Kawasaki KX 470 SPPR
31828mRichard Kay (R)Pikes Peak Middleweight11:20.9592:06.3992:46.6733:11.4063:16.4812016 Yamaha FZ-09
32199Travis PastranaPorsche Trophy by Yokohama11:24.2871:54.7772:49.9173:33.1483:06.4452016 Porsche Cayman GT4 Clubsport
33118Phil Bloom (R)Porsche Trophy by Yokohama11:28.1902:03.5592:47.8143:22.7423:14.0752016 Porsche Cayman GT4 Clubsport
347mJoseph TonerPikes Peak Lightweight11:29.4152:02.6832:44.9703:19.3263:22.4362007 Aprilia SXV
35597Marc Bunting (R)Porsche Trophy by Yokohama11:33.1422:05.6372:53.5773:21.3623:12.5662019 Porsche Cayman GT4 Clubsport
36981Gustav Lundh (R)Porsche Trophy by Yokohama11:41.5642:11.4772:52.9793:20.7453:16.3632016 Porsche Cayman GT4 Clubsport
37222Kevin WesleyTime Attack 111:43.5251:59.3482:59.8293:34.2923:10.0562019 Dodge Challenger SRT Hellcat Redeye Widebody
3842mTheo BernhardPikes Peak Lightweight11:46.9612:10.1682:49.5433:18.9723:28.2782019 Husqvarna FS450
39757mThomas Kendall (R)Pikes Peak Lightweight11:50.1512:07.3162:50.6253:23.1083:29.1022008 Yamaha YZ450F
4047mTyler Portillo (R)Exhibition Powersport11:52.9132:07.8652:51.2983:22.7573:30.9932007 Yamaha Raptor
4167Christian Schmitter (R)Time Attack 111:54.0752:05.0143:04.1823:26.0783:18.8012013 Porsche 911 GT3 R
42202Randy PobstExhibition11:57.8742:10.2863:04.3783:26.2553:16.9552019 Dodge Charger SRT Hellcat
4327mSun Tong (R)Pikes Peak Lightweight12:10.2602:14.5552:55.5663:23.0053:37.1342018 Husqvarna FS450
4430William Cavailhes (R)Time Attack 112:14.1132:14.9883:08.0393:29.7363:21.3502008 Porsche 911 GT3 RGT
45241Tyler Pappas (R)Time Attack 112:28.2422:23.6402:56.1463:32.6243:35.8322017 BMW M2
46442mJimi HeyderPikes Peak Middleweight12:58.6292:23.9773:10.2683:34.7573:49.6272014 Yamaha FZ-09
4771Andy FigueroaOpen Wheel13:10.7692:35.0163:27.5883:41.7783:26.3872005 Figwood Open Wheel
4865Rodney O’MaleyOpen Wheel13:43.6142:25.3123:16.2544:00.7584:01.2902018 O’Maley Special Spec V

Restez connecté au site Pilote-de-course.com, à sa chaine YouTube, sa Page Facebook, son compte Instagram et son compte twitter afin de suivre Pikes Peak 2019 et retrouvez le calendrier complet des courses de côtes sur votre site préféré.






A propos Jean-Michel Marcelin 1756 Articles
Créateur du site PILOTE-DE-COURSE.COM. Rédacteur et pilote amateur en rallye. Passionné de sport auto en général, Rallye, Formule 1, RallyCross, Rallye-Raid, Drift, Sim Racing et bien d'autres ... ainsi que du spectacle et du Fun à l'américaine.

Soyez le premier à commenter

Laisser un commentaire

Votre adresse de messagerie ne sera pas publiée.


*


Ce site utilise Akismet pour réduire les indésirables. En savoir plus sur comment les données de vos commentaires sont utilisées.